• In Czech Republic
  • List of Countries
  • For 7 days
  • Water Temperature
  • Satellite Maps
  • Weather Map
  • Weather Widgets
  • user-avatar
    Login

    Hourly Weather Barisal

    Today, 17 December, Sunday

    Time Temperature Precipitation Wind Pressure Humidity
    00:00 +21°C° 0 mm 1 mps 762 mmHg 52%
    01:00 +20°C° 0 mm 1 mps 762 mmHg 52%
    02:00 +19°C° 0 mm 2 mps 762 mmHg 52%
    03:00 +19°C° 0 mm 2 mps 762 mmHg 52%
    04:00 +18°C° 0 mm 2 mps 762 mmHg 53%
    05:00 +18°C° 0 mm 2 mps 762 mmHg 53%
    06:00 +18°C° 0 mm 2 mps 762 mmHg 54%
    07:00 +20°C° 0 mm 2 mps 763 mmHg 52%
    08:00 +21°C° 0 mm 2 mps 763 mmHg 50%
    09:00 +24°C° 0 mm 2 mps 764 mmHg 47%
    10:00 +25°C° 0 mm 2 mps 763 mmHg 45%
    11:00 +27°C° 0 mm 2 mps 763 mmHg 43%
    12:00 +28°C° 0 mm 2 mps 763 mmHg 40%
    13:00 +29°C° 0 mm 2 mps 762 mmHg 39%
    14:00 +29°C° 0 mm 1 mps 762 mmHg 38%
    15:00 +29°C° 0 mm 1 mps 761 mmHg 37%
    16:00 +28°C° 0 mm 1 mps 761 mmHg 41%
    17:00 +26°C° 0 mm 1 mps 761 mmHg 45%
    18:00 +24°C° 0 mm 1 mps 761 mmHg 49%
    19:00 +24°C° 0 mm 1 mps 762 mmHg 50%
    20:00 +23°C° 0 mm 1 mps 762 mmHg 51%
    21:00 +22°C° 0 mm 1 mps 763 mmHg 51%
    22:00 +22°C° 0 mm 1 mps 763 mmHg 52%
    23:00 +22°C° 0 mm 1 mps 763 mmHg 52%

    Tomorrow, 18 December, Monday

    Time Temperature Precipitation Wind Pressure Humidity
    00:00 +20°C° 0 mm 2 mps 763 mmHg 52%
    01:00 +20°C° 0 mm 2 mps 762 mmHg 53%
    02:00 +19°C° 0 mm 2 mps 762 mmHg 53%
    03:00 +19°C° 0 mm 2 mps 762 mmHg 54%
    04:00 +19°C° 0 mm 2 mps 762 mmHg 56%
    05:00 +18°C° 0 mm 2 mps 762 mmHg 59%
    06:00 +18°C° 0 mm 2 mps 762 mmHg 61%
    07:00 +20°C° 0 mm 2 mps 762 mmHg 60%
    08:00 +21°C° 0 mm 2 mps 763 mmHg 60%
    09:00 +24°C° 0 mm 2 mps 764 mmHg 59%
    10:00 +25°C° 0 mm 2 mps 763 mmHg 54%
    11:00 +27°C° 0 mm 2 mps 763 mmHg 50%
    12:00 +28°C° 0 mm 2 mps 763 mmHg 45%
    13:00 +29°C° 0 mm 2 mps 762 mmHg 43%
    14:00 +29°C° 0 mm 2 mps 761 mmHg 41%
    15:00 +29°C° 0 mm 1 mps 761 mmHg 39%
    16:00 +28°C° 0 mm 1 mps 761 mmHg 44%
    17:00 +26°C° 0 mm 1 mps 761 mmHg 48%
    18:00 +25°C° 0 mm 1 mps 761 mmHg 53%
    19:00 +24°C° 0 mm 1 mps 762 mmHg 54%
    20:00 +24°C° 0 mm 1 mps 762 mmHg 56%
    21:00 +23°C° 0 mm 1 mps 762 mmHg 58%
    22:00 +23°C° 0 mm 1 mps 762 mmHg 60%
    23:00 +21°C° 0 mm 2 mps 762 mmHg 62%

    Day after tomorrow, 19 December, Tuesday

    Time Temperature Precipitation Wind Pressure Humidity
    00:00 +21°C° 0 mm 2 mps 762 mmHg 64%
    01:00 +20°C° 0 mm 2 mps 762 mmHg 66%
    02:00 +20°C° 0 mm 2 mps 761 mmHg 69%
    03:00 +20°C° 0 mm 2 mps 761 mmHg 71%
    04:00 +19°C° 0 mm 2 mps 761 mmHg 73%
    05:00 +19°C° 0 mm 2 mps 761 mmHg 75%
    06:00 +19°C° 0 mm 2 mps 761 mmHg 77%
    07:00 +20°C° 0 mm 2 mps 762 mmHg 71%
    08:00 +23°C° 0 mm 2 mps 763 mmHg 66%
    09:00 +24°C° 0 mm 2 mps 764 mmHg 61%
    10:00 +26°C° 0 mm 2 mps 763 mmHg 55%
    11:00 +27°C° 0 mm 2 mps 763 mmHg 49%
    12:00 +28°C° 0 mm 2 mps 763 mmHg 43%
    13:00 +29°C° 0 mm 2 mps 762 mmHg 41%
    14:00 +29°C° 0 mm 2 mps 761 mmHg 39%
    15:00 +30°C° 0 mm 1 mps 761 mmHg 37%
    16:00 +28°C° 0 mm 1 mps 761 mmHg 41%
    17:00 +27°C° 0 mm 1 mps 761 mmHg 45%
    18:00 +25°C° 0 mm 1 mps 761 mmHg 50%
    19:00 +24°C° 0 mm 1 mps 762 mmHg 52%
    20:00 +24°C° 0 mm 1 mps 762 mmHg 54%
    21:00 +23°C° 0 mm 1 mps 763 mmHg 55%
    22:00 +23°C° 0 mm 1 mps 763 mmHg 57%
    23:00 +22°C° 0 mm 1 mps 762 mmHg 59%

    20 December, Wednesday

    Time Temperature Precipitation Wind Pressure Humidity
    00:00 +21°C° 0 mm 2 mps 762 mmHg 60%
    01:00 +21°C° 0 mm 2 mps 762 mmHg 62%
    02:00 +20°C° 0 mm 2 mps 762 mmHg 64%
    03:00 +20°C° 0 mm 2 mps 761 mmHg 66%
    04:00 +19°C° 0 mm 2 mps 762 mmHg 68%
    05:00 +19°C° 0 mm 2 mps 762 mmHg 69%
    06:00 +19°C° 0 mm 2 mps 762 mmHg 71%
    07:00 +20°C° 0 mm 2 mps 763 mmHg 66%
    08:00 +23°C° 0 mm 2 mps 763 mmHg 61%
    09:00 +25°C° 0 mm 2 mps 764 mmHg 56%
    10:00 +26°C° 0 mm 2 mps 764 mmHg 51%
    11:00 +27°C° 0 mm 2 mps 763 mmHg 46%
    12:00 +29°C° 0 mm 2 mps 763 mmHg 40%
    13:00 +29°C° 0 mm 2 mps 762 mmHg 39%
    14:00 +30°C° 0 mm 2 mps 762 mmHg 37%
    15:00 +30°C° 0 mm 1 mps 761 mmHg 35%
    16:00 +28°C° 0 mm 1 mps 761 mmHg 39%
    17:00 +27°C° 0 mm 1 mps 761 mmHg 43%
    18:00 +25°C° 0 mm 1 mps 761 mmHg 47%
    19:00 +24°C° 0 mm 1 mps 762 mmHg 49%
    20:00 +24°C° 0 mm 1 mps 762 mmHg 51%
    21:00 +23°C° 0 mm 1 mps 763 mmHg 53%
    22:00 +23°C° 0 mm 1 mps 763 mmHg 54%
    23:00 +22°C° 0 mm 1 mps 762 mmHg 55%

    21 December, Thursday

    Time Temperature Precipitation Wind Pressure Humidity
    00:00 +22°C° 0 mm 1 mps 762 mmHg 56%
    01:00 +22°C° 0 mm 1 mps 762 mmHg 57%
    02:00 +21°C° 0 mm 1 mps 762 mmHg 58%
    03:00 +21°C° 0 mm 1 mps 762 mmHg 59%
    04:00 +21°C° 0 mm 1 mps 762 mmHg 61%
    05:00 +20°C° 0 mm 1 mps 762 mmHg 62%
    06:00 +20°C° 0 mm 1 mps 762 mmHg 63%
    07:00 +22°C° 0 mm 1 mps 763 mmHg 59%
    08:00 +23°C° 0 mm 1 mps 763 mmHg 55%
    09:00 +25°C° 0 mm 2 mps 764 mmHg 51%
    10:00 +26°C° 0 mm 2 mps 764 mmHg 47%
    11:00 +28°C° 0 mm 2 mps 763 mmHg 43%
    12:00 +29°C° 0 mm 2 mps 762 mmHg 39%
    13:00 +29°C° 0 mm 2 mps 762 mmHg 37%
    14:00 +30°C° 0 mm 1 mps 761 mmHg 36%
    15:00 +30°C° 0 mm 1 mps 760 mmHg 34%
    16:00 +29°C° 0 mm 1 mps 760 mmHg 39%
    17:00 +27°C° 0 mm 1 mps 760 mmHg 43%
    18:00 +25°C° 0 mm 1 mps 760 mmHg 47%
    19:00 +25°C° 0 mm 1 mps 761 mmHg 49%
    20:00 +24°C° 0 mm 1 mps 761 mmHg 52%
    21:00 +23°C° 0 mm 1 mps 761 mmHg 54%
    22:00 +23°C° 0 mm 1 mps 761 mmHg 56%
    23:00 +22°C° 0 mm 1 mps 761 mmHg 58%

    22 December, Friday

    Time Temperature Precipitation Wind Pressure Humidity
    00:00 +22°C° 0 mm 1 mps 761 mmHg 61%
    01:00 +22°C° 0 mm 1 mps 760 mmHg 61%
    02:00 +21°C° 0 mm 1 mps 760 mmHg 62%
    03:00 +21°C° 0 mm 1 mps 760 mmHg 63%
    04:00 +21°C° 0 mm 1 mps 760 mmHg 63%
    05:00 +20°C° 0 mm 1 mps 760 mmHg 64%
    06:00 +20°C° 0 mm 1 mps 760 mmHg 64%
    07:00 +22°C° 0 mm 1 mps 761 mmHg 60%
    08:00 +23°C° 0 mm 1 mps 761 mmHg 56%
    09:00 +25°C° 0 mm 1 mps 762 mmHg 52%
    10:00 +26°C° 0 mm 1 mps 761 mmHg 48%
    11:00 +28°C° 0 mm 1 mps 761 mmHg 44%
    12:00 +29°C° 0 mm 1 mps 760 mmHg 40%
    13:00 +29°C° 0 mm 1 mps 760 mmHg 38%
    14:00 +30°C° 0 mm 1 mps 759 mmHg 37%
    15:00 +30°C° 0 mm 1 mps 759 mmHg 36%
    16:00 +28°C° 0 mm 1 mps 759 mmHg 39%
    17:00 +27°C° 0 mm 1 mps 759 mmHg 43%
    18:00 +25°C° 0 mm 1 mps 759 mmHg 46%
    19:00 +25°C° 0 mm 1 mps 759 mmHg 48%
    20:00 +24°C° 0 mm 1 mps 760 mmHg 50%
    21:00 +23°C° 0 mm 1 mps 760 mmHg 52%
    22:00 +23°C° 0 mm 1 mps 760 mmHg 54%
    23:00 +22°C° 0 mm 1 mps 760 mmHg 56%
    Show more